| time (UTC) | temp F | wind direction | speed MPH | gust MPH | rain 1hr in | rain 24hr in | rain mn in | humidity % | barometer mb |
| 20260507075103 | 51 | 0 | 0.0 | 0.0 | 0.00 | 0.00 | 0.00 | 87 | 1021.1 |
| 20260507073103 | 50 | 0 | 0.0 | 0.0 | 0.00 | 0.00 | 0.00 | 86 | 1020.9 |
| 20260507072058 | 50 | 0 | 0.0 | 0.0 | 0.00 | 0.00 | 0.00 | 88 | 1020.9 |
| 20260507071102 | 50 | 0 | 0.0 | 0.0 | 0.00 | 0.00 | 0.00 | 90 | 1020.8 |
| 20260507070057 | 49 | 0 | 0.0 | 0.0 | 0.00 | 0.00 | 0.00 | 92 | 1020.7 |
| 20260507062057 | 47 | 0 | 0.0 | 0.0 | 0.00 | 0.00 | 0.00 | 97 | 1020.5 |
| 20260507061058 | 47 | 0 | 0.0 | 0.0 | 0.00 | 0.00 | 0.00 | 98 | 1020.5 |
| 20260507060056 | 47 | 0 | 0.0 | 0.0 | 0.00 | 0.00 | 0.00 | 98 | 1020.4 |
| 20260507054059 | 46 | 0 | 0.0 | 0.0 | 0.00 | 0.00 | 0.00 | 98 | 1020.2 |
| 20260507053054 | 46 | 0 | 0.0 | 0.0 | 0.00 | 0.00 | 0.00 | 98 | 1020.1 |
| 20260507052057 | 46 | 0 | 0.0 | 0.0 | 0.00 | 0.00 | 0.00 | 98 | 1020.0 |
| 20260507051058 | 46 | 0 | 0.0 | 0.0 | 0.00 | 0.00 | 0.00 | 98 | 1020.0 |
| 20260507050056 | 46 | 0 | 0.0 | 0.0 | 0.00 | 0.00 | 0.00 | 98 | 1019.9 |
| 20260507044058 | 45 | 0 | 0.0 | 0.0 | 0.00 | 0.00 | 0.00 | 98 | 1019.8 |
| 20260507043057 | 45 | 0 | 0.0 | 0.0 | 0.00 | 0.00 | 0.00 | 98 | 1019.7 |
| 20260507042059 | 45 | 0 | 0.0 | 0.0 | 0.00 | 0.00 | 0.00 | 98 | 1019.7 |
| 20260507041056 | 45 | 0 | 0.0 | 0.0 | 0.00 | 0.01 | 0.00 | 98 | 1019.6 |
| 20260507035057 | 45 | 0 | 0.0 | 0.0 | 0.00 | 0.01 | 0.00 | 98 | 1019.5 |
| 20260507034058 | 45 | 0 | 0.0 | 0.0 | 0.00 | 0.01 | 0.00 | 98 | 1019.4 |
| 20260507031059 | 45 | 0 | 0.0 | 0.0 | 0.00 | 0.02 | 0.00 | 97 | 1019.3 |
| 20260507030058 | 45 | 0 | 0.0 | 0.0 | 0.00 | 0.02 | 0.00 | 97 | 1019.3 |
| 20260507025059 | 45 | 0 | 0.0 | 0.0 | 0.00 | 0.02 | 0.00 | 97 | 1019.3 |
| 20260507023058 | 45 | 0 | 0.0 | 0.0 | 0.00 | 0.02 | 0.00 | 97 | 1019.2 |
| 20260507022058 | 45 | 0 | 0.0 | 0.0 | 0.00 | 0.02 | 0.00 | 97 | 1019.1 |
| 20260507021057 | 45 | 0 | 0.0 | 0.0 | 0.00 | 0.02 | 0.00 | 97 | 1019.0 |
| 20260507015057 | 44 | 0 | 0.0 | 0.0 | 0.00 | 0.02 | 0.00 | 96 | 1018.9 |
| 20260507014057 | 44 | 0 | 0.0 | 0.0 | 0.00 | 0.02 | 0.00 | 96 | 1018.8 |
| 20260507013054 | 45 | 0 | 0.0 | 0.0 | 0.00 | 0.02 | 0.00 | 96 | 1018.9 |
| 20260507011058 | 45 | 0 | 0.0 | 0.0 | 0.00 | 0.02 | 0.00 | 96 | 1018.8 |
| 20260507005056 | 45 | 0 | 0.0 | 0.0 | 0.00 | 0.02 | 0.00 | 95 | 1018.8 |
| 20260507003056 | 45 | 0 | 0.0 | 0.0 | 0.00 | 0.03 | 0.00 | 95 | 1018.7 |
| 20260507002057 | 45 | 0 | 0.0 | 0.0 | 0.00 | 0.04 | 0.00 | 94 | 1018.6 |
| 20260507000106 | 44 | 0 | 0.0 | 0.0 | 0.00 | 0.05 | 0.00 | 92 | 1018.5 |
| 20260506235106 | 44 | 0 | 0.0 | 0.0 | 0.00 | 0.06 | 0.00 | 92 | 1018.5 |
| 20260506234106 | 44 | 0 | 0.0 | 0.0 | 0.00 | 0.06 | 0.00 | 93 | 1018.4 |
| 20260506233109 | 44 | 0 | 0.0 | 0.0 | 0.00 | 0.06 | 0.00 | 92 | 1018.3 |
| 20260506232106 | 44 | 0 | 0.0 | 0.0 | 0.00 | 0.07 | 0.00 | 91 | 1018.3 |
| 20260506230107 | 44 | 0 | 0.0 | 0.0 | 0.00 | 0.09 | 0.00 | 90 | 1018.1 |
| 20260506223107 | 45 | 0 | 0.0 | 0.0 | 0.00 | 0.10 | 0.00 | 88 | 1017.9 |
| 20260506222106 | 45 | 0 | 0.0 | 0.0 | 0.00 | 0.11 | 0.00 | 87 | 1017.9 |
| 20260506221109 | 46 | 0 | 0.0 | 0.0 | 0.00 | 0.11 | 0.00 | 86 | 1017.9 |
| 20260506220116 | 47 | 0 | 0.0 | 0.0 | 0.00 | 0.12 | 0.00 | 84 | 1017.9 |
| 20260506214114 | 47 | 0 | 0.0 | 0.0 | 0.00 | 0.13 | 0.12 | 85 | 1018.0 |
| 20260506213112 | 47 | 0 | 0.0 | 0.0 | 0.00 | 0.14 | 0.12 | 85 | 1017.9 |
| 20260506212112 | 47 | 0 | 0.0 | 0.0 | 0.00 | 0.14 | 0.12 | 85 | 1017.9 |
| 20260506211112 | 48 | 0 | 0.0 | 0.0 | 0.00 | 0.15 | 0.12 | 84 | 1017.8 |
| 20260506210112 | 48 | 0 | 0.0 | 0.0 | 0.00 | 0.16 | 0.12 | 82 | 1017.7 |
| 20260506205113 | 49 | 0 | 0.0 | 0.0 | 0.00 | 0.16 | 0.12 | 82 | 1017.7 |
| 20260506203114 | 50 | 0 | 0.0 | 0.0 | 0.00 | 0.16 | 0.12 | 79 | 1017.5 |
| 20260506202116 | 50 | 0 | 0.0 | 0.0 | 0.00 | 0.17 | 0.12 | 77 | 1017.4 |
| 20260506201117 | 51 | 0 | 0.0 | 0.0 | 0.00 | 0.17 | 0.12 | 76 | 1017.3 |
| 20260506200112 | 51 | 0 | 0.0 | 0.0 | 0.00 | 0.17 | 0.12 | 74 | 1017.1 |
| 20260506194115 | 52 | 0 | 0.0 | 0.0 | 0.00 | 0.17 | 0.12 | 76 | 1017.0 |
| 20260506193116 | 52 | 0 | 0.0 | 0.0 | 0.00 | 0.17 | 0.12 | 79 | 1016.9 |
| 20260506191112 | 52 | 0 | 0.0 | 0.0 | 0.00 | 0.17 | 0.12 | 82 | 1016.6 |
| 20260506190113 | 52 | 0 | 0.0 | 0.0 | 0.00 | 0.18 | 0.12 | 80 | 1016.4 |
| 20260506185113 | 52 | 0 | 0.0 | 0.0 | 0.00 | 0.18 | 0.12 | 79 | 1016.3 |
| 20260506182113 | 53 | 0 | 0.0 | 0.0 | 0.00 | 0.18 | 0.12 | 79 | 1016.0 |
| 20260506180110 | 53 | 0 | 0.0 | 0.0 | 0.00 | 0.18 | 0.12 | 79 | 1015.7 |
| 20260506175110 | 53 | 0 | 0.0 | 0.0 | 0.00 | 0.18 | 0.12 | 81 | 1015.7 |
| 20260506174107 | 53 | 0 | 0.0 | 0.0 | 0.00 | 0.18 | 0.12 | 80 | 1015.4 |
| 20260506173106 | 54 | 0 | 0.0 | 0.0 | 0.00 | 0.18 | 0.12 | 79 | 1015.3 |
| 20260506171108 | 54 | 0 | 0.0 | 0.0 | 0.00 | 0.18 | 0.12 | 79 | 1015.2 |
| 20260506163105 | 53 | 0 | 0.0 | 0.0 | 0.00 | 0.18 | 0.12 | 79 | 1015.2 |
| 20260506162108 | 53 | 0 | 0.0 | 0.0 | 0.00 | 0.18 | 0.12 | 79 | 1015.1 |
| 20260506161105 | 53 | 0 | 0.0 | 0.0 | 0.00 | 0.18 | 0.12 | 79 | 1015.2 |
| 20260506155104 | 54 | 0 | 0.0 | 0.0 | 0.00 | 0.18 | 0.12 | 78 | 1015.1 |
| 20260506154110 | 55 | 0 | 0.0 | 0.0 | 0.00 | 0.18 | 0.12 | 79 | 1015.1 |
| 20260506153104 | 55 | 0 | 0.0 | 0.0 | 0.00 | 0.18 | 0.12 | 80 | 1015.1 |
| 20260506152102 | 55 | 0 | 0.0 | 0.0 | 0.00 | 0.18 | 0.12 | 79 | 1015.0 |
| 20260506151105 | 56 | 0 | 0.0 | 0.0 | 0.00 | 0.18 | 0.12 | 78 | 1015.0 |
| 20260506150104 | 56 | 0 | 0.0 | 0.0 | 0.00 | 0.18 | 0.12 | 77 | 1014.9 |
| 20260506145104 | 57 | 0 | 0.0 | 0.0 | 0.00 | 0.18 | 0.12 | 76 | 1014.9 |
| 20260506144101 | 57 | 0 | 0.0 | 0.0 | 0.00 | 0.18 | 0.12 | 75 | 1014.7 |
| 20260506142103 | 57 | 0 | 0.0 | 0.0 | 0.00 | 0.18 | 0.12 | 79 | 1014.7 |
| 20260506140110 | 57 | 0 | 0.0 | 0.0 | 0.00 | 0.18 | 0.12 | 77 | 1014.8 |
| 20260506135103 | 56 | 0 | 0.0 | 0.0 | 0.00 | 0.18 | 0.12 | 79 | 1014.9 |
| 20260506133103 | 56 | 0 | 0.0 | 0.0 | 0.00 | 0.18 | 0.12 | 77 | 1014.8 |
| 20260506132102 | 56 | 0 | 0.0 | 0.0 | 0.00 | 0.18 | 0.12 | 78 | 1014.9 |
| 20260506131103 | 56 | 0 | 0.0 | 0.0 | 0.00 | 0.18 | 0.12 | 80 | 1014.8 |
| 20260506125101 | 55 | 0 | 0.0 | 0.0 | 0.00 | 0.18 | 0.12 | 79 | 1014.7 |
| 20260506124100 | 54 | 0 | 0.0 | 0.0 | 0.00 | 0.18 | 0.12 | 85 | 1014.7 |
| 20260506123104 | 54 | 0 | 0.0 | 0.0 | 0.00 | 0.18 | 0.12 | 86 | 1014.7 |
| 20260506115059 | 52 | 0 | 0.0 | 0.0 | 0.00 | 0.18 | 0.12 | 88 | 1014.7 |
| 20260506114100 | 53 | 0 | 0.0 | 0.0 | 0.00 | 0.18 | 0.12 | 88 | 1014.7 |
| 20260506112100 | 53 | 0 | 0.0 | 0.0 | 0.00 | 0.18 | 0.12 | 90 | 1014.7 |
| 20260506111102 | 52 | 0 | 0.0 | 0.0 | 0.00 | 0.18 | 0.12 | 91 | 1014.8 |
| 20260506110101 | 52 | 0 | 0.0 | 0.0 | 0.00 | 0.18 | 0.12 | 93 | 1014.8 |
| 20260506104100 | 50 | 0 | 0.0 | 0.0 | 0.00 | 0.18 | 0.12 | 96 | 1014.8 |
| 20260506103102 | 50 | 0 | 0.0 | 0.0 | 0.00 | 0.18 | 0.12 | 96 | 1014.8 |
| 20260506102103 | 50 | 0 | 0.0 | 0.0 | 0.00 | 0.18 | 0.12 | 97 | 1014.8 |
| 20260506101100 | 49 | 0 | 0.0 | 0.0 | 0.00 | 0.18 | 0.12 | 98 | 1014.8 |
| 20260506100057 | 49 | 0 | 0.0 | 0.0 | 0.00 | 0.18 | 0.12 | 99 | 1014.7 |
| 20260506095101 | 49 | 0 | 0.0 | 0.0 | 0.00 | 0.18 | 0.12 | 10 | 1014.7 |
| 20260506094100 | 48 | 0 | 0.0 | 0.0 | 0.00 | 0.18 | 0.12 | 10 | 1014.6 |
| 20260506093100 | 48 | 0 | 0.0 | 0.0 | 0.00 | 0.18 | 0.12 | 10 | 1014.5 |
| 20260506092059 | 48 | 0 | 0.0 | 0.0 | 0.00 | 0.18 | 0.12 | 10 | 1014.4 |
| 20260506085101 | 48 | 0 | 0.0 | 0.0 | 0.00 | 0.18 | 0.12 | 10 | 1014.3 |
| 20260506084059 | 47 | 0 | 0.0 | 0.0 | 0.00 | 0.18 | 0.12 | 10 | 1014.2 |
| 20260506083056 | 47 | 0 | 0.0 | 0.0 | 0.00 | 0.18 | 0.12 | 10 | 1014.1 |
| 20260506082100 | 47 | 0 | 0.0 | 0.0 | 0.00 | 0.18 | 0.12 | 10 | 1014.0 |
| 20260506081057 | 47 | 0 | 0.0 | 0.0 | 0.00 | 0.18 | 0.12 | 10 | 1014.0 |